Theta_e
339 338 343 346 348 349 348 346 344 342 339 337 336 335 332 330 328 327 327 328 327 327 327 329 332 334 336 338 340 340 341 341 340 340 340 339 336 333 330 327 327 327 329 332 335 337 338 338 338 338 337 336 337 334 333 334 334 335 335 337 337 337 337 336 336 335 335 336 335 334 334 333 332 332 331 330 329 329 328 329 330 330 330 331 331
337 338 343 345 347 348 347 346 345 342 339 337 336 335 332 330 328 327 328 328 328 327 326 327 330 334 337 338 338 338 336 335 334 334 333 333 332 332 331 331 332 330 328 328 329 332 335 338 338 338 337 336 336 335 335 333 334 337 337 337 337 337 337 336 336 336 336 334 332 332 333 332 330 331 329 327 328 326 325 329 330 330 331 331 331
334 338 342 344 347 347 347 346 345 342 339 337 336 336 333 331 328 327 327 329 329 328 327 325 327 330 333 334 333 331 330 330 330 330 330 332 333 334 334 334 334 331 329 328 328 332 336 337 338 337 336 336 336 336 335 334 335 337 335 335 336 335 335 336 336 336 334 332 332 332 332 331 332 332 329 327 328 327 326 329 329 329 330 330 329
334 337 341 344 345 346 347 346 346 343 339 337 336 336 334 331 329 328 327 328 329 329 328 326 326 328 329 329 327 326 327 327 329 330 331 333 334 335 335 336 335 331 327 329 333 334 337 337 337 337 335 336 336 336 336 334 335 335 334 334 335 335 336 337 337 335 333 332 332 332 331 332 332 330 329 329 330 330 329 329 329 330 330 328 328
333 336 341 343 342 343 346 346 346 344 340 337 337 337 336 332 329 327 327 328 329 329 329 327 326 327 328 328 327 328 327 328 329 330 332 333 335 336 337 336 335 333 329 331 335 335 336 337 337 337 336 336 336 336 335 334 334 335 334 334 336 336 336 337 336 334 332 330 330 331 332 332 332 331 331 330 329 329 329 329 329 330 329 329 329
332 335 340 342 341 341 343 346 346 345 341 338 337 337 336 333 330 327 327 327 328 329 330 330 329 328 328 329 329 329 329 330 331 332 333 335 337 338 339 338 337 335 332 332 334 334 336 337 336 337 336 336 336 335 334 333 333 334 334 334 335 336 336 336 334 332 329 329 330 331 331 331 331 331 330 329 328 329 330 329 329 328 327 328 329
331 335 340 341 341 341 341 344 345 345 342 339 337 337 336 334 331 328 327 327 327 329 330 331 331 330 330 330 330 330 331 331 333 334 337 338 338 339 339 339 339 337 334 333 333 333 336 337 336 336 336 335 335 334 333 333 333 334 334 334 334 334 334 334 332 329 327 328 330 331 331 331 330 329 330 331 330 330 330 329 330 329 327 327 328
331 334 338 338 339 340 339 340 344 345 344 341 338 337 337 335 332 329 327 326 327 329 330 330 331 332 332 331 331 332 332 333 334 336 337 338 339 339 339 339 339 338 335 334 333 333 335 335 336 335 334 334 334 333 332 331 332 333 332 332 332 333 332 332 330 327 327 329 331 332 332 332 331 330 331 330 330 330 330 329 329 329 326 325 327
332 332 334 333 335 338 337 338 343 344 345 344 340 338 337 335 332 330 328 327 327 329 330 331 331 332 333 333 332 333 333 335 336 337 337 337 338 338 339 339 338 336 335 334 332 333 334 334 335 335 333 332 332 332 331 331 331 330 329 328 329 331 331 329 327 326 328 330 331 331 331 332 332 331 331 330 329 328 327 326 326 325 324 324 328
330 330 331 331 333 336 335 337 341 343 345 345 343 339 338 336 334 331 329 328 328 329 331 331 331 332 333 333 334 334 334 335 336 337 337 336 336 336 336 336 336 334 332 334 333 333 335 335 336 335 334 332 332 333 332 332 331 330 330 328 327 329 329 328 326 326 328 328 329 331 332 332 333 332 330 329 327 325 325 324 324 323 324 327 328
330 329 329 331 333 334 334 336 339 341 344 345 344 342 339 337 335 331 330 329 328 329 331 332 331 332 332 334 334 334 335 335 336 337 337 336 335 333 333 333 334 333 330 333 334 333 334 335 336 335 335 333 333 333 333 333 333 333 333 332 329 328 329 329 328 328 328 327 329 332 333 332 332 331 329 328 326 325 326 326 325 319 321 327 327
331 329 329 331 332 332 333 336 339 341 343 345 345 344 342 339 336 332 330 329 329 330 331 332 332 332 333 334 334 335 335 335 337 338 337 337 335 332 332 332 332 333 330 330 334 333 333 334 335 334 334 333 333 334 334 334 334 334 333 333 331 329 328 329 329 329 329 329 329 330 331 330 330 330 329 327 326 327 327 327 325 320 321 326 326
332 332 330 330 332 334 334 337 340 340 342 344 345 345 344 341 339 334 331 330 330 330 331 332 332 332 333 334 333 334 334 335 337 338 337 336 334 332 332 331 332 332 330 329 332 334 333 334 334 333 333 333 333 333 334 334 332 330 331 332 332 330 327 328 329 329 330 329 329 329 329 329 329 330 328 327 327 328 328 326 325 324 324 325 325
332 331 331 332 336 337 336 338 339 340 341 344 344 344 344 343 341 337 333 331 331 331 332 332 332 332 333 333 332 333 334 335 337 337 337 336 334 333 332 332 332 331 331 328 330 333 333 332 332 331 332 332 332 332 332 332 328 326 330 333 333 331 328 328 328 329 329 329 329 328 328 329 330 329 327 328 329 329 328 326 325 325 325 326 325
333 332 334 336 338 339 338 338 338 339 341 342 344 344 344 343 342 340 335 331 332 332 332 332 332 333 333 333 332 333 334 334 337 337 337 337 334 333 332 332 332 331 332 330 329 331 331 331 330 330 331 331 331 331 331 329 324 326 331 333 334 332 330 330 329 329 329 328 328 328 330 330 330 329 328 329 330 328 327 326 326 325 325 325 325
333 332 337 338 338 340 339 339 339 340 340 341 343 343 343 343 343 341 338 334 332 333 333 332 332 333 333 332 333 333 334 334 336 337 337 337 335 334 333 332 332 330 331 332 330 330 329 329 329 329 329 329 330 330 329 324 322 327 331 332 334 332 331 331 331 330 328 328 327 328 329 329 330 330 329 329 329 327 326 325 324 324 324 325 325
332 333 337 337 337 339 339 339 340 340 341 341 342 343 342 343 343 342 340 337 333 334 333 333 333 332 333 334 334 334 334 335 336 337 337 337 336 335 333 332 331 329 329 332 332 331 329 328 327 327 326 325 326 327 325 320 322 328 328 331 333 332 332 332 332 330 328 327 327 327 327 328 330 329 329 329 328 327 326 325 324 324 324 325 325
334 334 334 334 336 337 337 339 340 341 341 341 342 343 343 342 344 342 342 339 336 335 335 334 334 333 333 334 334 334 334 334 335 336 337 337 336 335 333 332 330 328 327 329 331 332 331 328 327 327 325 323 322 323 322 319 324 328 327 329 331 332 332 332 332 330 328 326 325 325 324 326 328 328 328 327 326 327 327 325 324 324 323 324 324
336 334 332 332 333 333 334 336 339 340 341 342 342 342 343 343 343 343 342 341 338 337 336 335 335 334 334 334 334 335 334 334 334 335 335 336 336 335 334 332 330 328 325 325 327 331 332 330 328 327 326 323 321 321 320 321 326 327 327 329 330 331 333 332 332 330 327 326 326 324 324 325 327 327 326 324 324 327 326 323 324 324 323 322 323
336 335 331 330 330 329 329 332 335 338 339 340 341 342 342 342 341 342 342 341 339 338 338 337 336 335 336 335 334 335 334 334 334 333 335 334 334 335 334 332 331 327 324 323 325 328 331 332 330 328 327 324 322 321 320 322 327 327 327 329 330 331 332 333 332 330 327 327 326 324 324 324 326 327 326 324 323 323 322 320 321 323 322 321 322
337 335 331 329 328 329 330 330 331 333 335 336 339 341 341 341 340 341 342 341 339 340 340 339 337 336 335 335 334 333 333 335 333 333 333 332 332 334 334 333 330 326 325 324 324 325 328 331 332 330 328 326 324 323 321 325 327 326 328 329 329 330 332 333 332 330 328 327 326 325 325 324 326 328 326 325 322 319 318 320 322 321 319 319 321
337 336 332 330 329 331 333 332 330 330 331 333 335 338 340 340 340 341 341 340 339 340 339 339 339 337 335 334 334 333 334 335 333 332 331 330 330 332 333 332 330 327 326 324 323 325 324 326 330 331 329 327 325 324 324 327 327 326 328 330 329 330 332 333 332 329 328 327 326 325 325 325 328 328 326 325 323 319 319 322 323 319 315 314 319
336 336 334 332 331 332 334 333 331 329 330 332 333 336 338 339 339 340 341 339 339 339 339 338 339 337 335 335 334 333 334 335 334 332 330 329 330 331 332 332 331 329 327 325 323 325 324 323 325 329 330 327 325 324 324 326 326 326 328 330 329 330 331 332 331 330 328 327 326 326 325 326 329 328 326 325 323 319 320 324 323 321 317 310 314
336 336 336 334 333 333 334 334 332 330 331 330 331 333 336 337 338 339 340 340 339 338 338 338 338 338 337 335 334 334 335 336 335 333 331 331 331 331 331 332 332 331 329 326 324 325 324 322 323 328 330 326 324 324 324 325 324 325 329 329 329 330 331 332 331 330 328 327 326 327 326 327 328 329 327 326 323 317 319 324 323 322 319 310 309
335 337 337 335 333 334 335 335 334 333 332 331 329 330 331 334 335 337 337 338 339 338 337 338 337 337 337 336 335 335 335 336 335 333 333 332 332 331 330 332 333 331 329 327 326 326 325 322 323 327 328 325 324 324 324 324 322 325 328 329 329 330 331 331 331 330 328 327 327 327 327 327 328 329 329 326 323 319 319 321 321 320 319 314 310
336 336 335 335 334 335 336 335 335 335 334 333 332 330 328 329 331 333 335 335 336 337 337 337 337 337 337 336 336 336 336 335 334 334 333 333 333 331 330 331 331 330 328 327 326 326 325 323 323 325 326 325 324 324 323 323 322 324 326 328 329 329 330 330 330 330 327 327 328 327 327 327 327 328 329 328 324 321 321 319 319 319 316 316 314
335 335 334 335 335 335 335 335 335 335 335 335 335 333 331 329 327 330 331 331 333 334 336 336 336 337 336 336 336 336 336 334 334 334 332 334 334 332 331 330 330 329 326 326 326 325 325 323 323 323 325 325 324 323 323 322 322 323 325 327 328 329 329 330 330 329 327 327 328 328 328 327 326 328 328 328 326 324 322 320 321 321 316 315 318
336 335 335 336 336 336 335 334 335 334 334 335 336 335 333 331 328 329 328 328 329 330 331 333 335 336 336 336 336 335 334 332 333 332 331 334 335 334 331 330 329 327 324 325 325 324 325 324 323 323 324 323 323 323 324 325 323 322 323 325 327 329 329 329 329 328 327 327 328 328 328 327 326 327 327 327 327 326 324 322 322 321 317 314 316
336 336 336 337 336 336 334 334 334 334 334 334 335 335 334 332 330 329 329 328 327 326 326 330 334 335 335 336 335 334 332 332 333 333 331 332 334 335 332 330 329 326 322 322 324 324 324 324 324 323 323 323 324 326 327 328 327 323 322 323 326 329 329 328 328 327 327 328 328 328 328 327 327 327 326 326 326 326 326 323 322 321 318 313 313
337 337 337 337 336 336 335 334 334 334 334 333 334 335 334 333 333 332 331 331 329 327 325 328 332 335 335 335 335 334 333 334 335 334 334 333 334 336 333 330 328 324 320 320 322 323 323 323 323 323 324 326 327 329 329 329 328 326 323 321 325 329 330 329 329 327 326 328 328 328 328 327 327 327 326 325 324 327 328 325 324 325 321 317 317
337 338 337 337 336 335 335 334 335 334 334 334 334 335 334 334 335 334 334 334 332 331 327 327 331 334 334 335 335 334 335 336 336 335 335 335 334 335 334 331 327 323 320 318 321 322 322 322 322 322 324 327 329 328 328 328 328 327 326 324 325 329 330 330 330 329 326 327 328 328 328 328 328 327 327 326 325 326 329 328 327 326 325 322 322
336 337 337 336 335 334 334 334 334 335 333 333 333 334 333 334 334 333 335 336 335 335 333 331 332 334 334 334 334 334 335 335 335 335 335 335 335 335 334 332 328 325 321 319 320 322 321 321 322 323 324 326 327 327 327 327 328 328 328 327 327 328 329 329 330 330 328 327 328 328 328 328 328 328 327 326 325 326 328 328 329 328 326 325 324
335 337 337 336 333 331 330 331 332 334 333 333 333 332 331 330 328 329 333 336 336 336 335 334 334 335 335 334 334 334 334 334 334 334 334 335 335 335 335 334 331 328 325 323 322 321 321 321 322 324 325 325 325 325 326 328 329 330 329 329 328 328 329 330 330 330 329 328 328 329 328 329 328 328 327 327 325 325 326 327 329 329 328 326 325
332 331 332 330 326 325 326 328 331 332 333 332 331 328 325 323 321 324 330 334 335 335 335 335 335 335 335 335 335 334 334 334 335 335 336 335 334 335 335 335 334 330 329 329 327 324 323 323 323 323 324 325 325 325 327 329 330 330 331 329 329 329 329 330 329 329 329 328 328 329 329 329 328 328 328 328 327 325 326 326 327 329 328 327 327
327 325 324 322 321 322 323 327 330 331 331 329 327 324 322 321 320 321 324 326 328 332 334 333 334 334 334 334 334 334 335 334 335 335 335 335 334 334 333 333 334 332 330 330 329 329 328 327 327 326 327 329 330 330 330 331 331 331 331 331 330 329 329 329 330 329 329 328 328 328 329 329 329 329 329 328 327 327 326 326 326 328 328 328 327
323 321 320 319 318 319 322 326 329 329 327 326 324 323 322 321 321 321 322 322 322 325 330 331 332 331 331 331 332 333 334 334 333 333 334 334 332 331 331 332 333 333 331 331 331 331 332 331 330 330 330 331 332 332 332 331 331 331 331 331 331 329 329 329 329 329 329 329 328 328 328 329 329 329 329 329 328 328 327 326 326 326 327 328 327
319 318 317 317 317 318 321 324 327 327 325 324 322 322 322 321 321 322 322 322 321 321 323 327 328 326 325 326 328 329 330 332 331 332 333 331 330 330 331 332 333 332 332 332 332 333 333 333 332 332 332 331 331 331 331 331 331 331 331 331 330 329 329 329 328 329 329 329 329 329 329 328 329 329 329 329 329 329 328 328 327 326 327 326 326
317 317 317 316 317 319 321 323 324 324 323 322 321 320 320 320 320 322 323 321 320 321 321 321 322 323 323 323 323 323 325 329 330 331 331 329 330 330 330 332 332 332 333 332 332 333 334 334 333 333 333 332 331 331 331 331 330 330 331 331 329 328 328 329 329 329 330 330 329 330 329 329 329 329 329 329 329 329 329 328 327 326 326 326 326
317 317 316 316 317 320 321 323 323 323 322 321 319 318 318 319 320 322 322 319 318 320 322 321 322 323 324 323 323 322 324 328 330 330 329 328 328 327 328 331 332 332 332 332 332 333 333 334 333 333 332 331 331 331 331 331 330 329 331 331 329 327 327 328 329 330 330 330 330 330 330 330 329 329 329 329 329 330 329 329 328 328 327 326 325
316 316 316 316 318 320 321 322 322 322 320 318 317 317 317 317 318 320 319 318 318 320 322 323 323 324 324 324 323 324 325 326 328 328 326 326 326 325 324 327 329 329 330 329 330 332 332 332 332 331 331 330 331 331 330 331 330 329 329 331 331 329 327 327 328 330 331 331 330 330 330 330 330 330 330 330 330 329 330 330 329 329 328 327 326
315 316 316 316 317 319 320 320 321 321 319 317 316 316 316 316 316 317 316 317 319 320 322 323 324 324 324 325 324 325 325 325 325 325 325 325 325 325 323 323 324 324 326 327 327 329 330 331 332 332 332 331 331 330 331 331 330 329 328 329 330 330 329 328 328 328 329 330 330 330 330 330 330 330 330 330 330 329 329 330 330 329 329 328 327
315 315 315 316 316 317 318 319 319 319 317 316 314 315 316 316 314 314 314 316 320 321 322 324 324 324 323 323 323 323 323 323 323 323 323 323 324 325 324 324 325 325 327 328 327 327 328 328 329 330 331 331 330 330 330 331 330 328 327 327 330 331 330 329 329 328 328 329 329 330 329 329 330 329 330 330 329 329 329 329 330 330 330 329 329
315 315 315 314 314 315 317 317 317 317 315 313 312 314 315 315 312 312 313 315 319 321 322 321 320 320 321 321 319 317 317 317 318 320 321 321 323 324 324 324 325 326 327 327 326 327 327 327 327 328 329 329 329 329 329 329 329 328 327 328 329 331 331 329 328 329 329 328 329 328 329 328 328 328 329 330 328 328 328 328 329 330 330 330 330
314 314 314 314 313 313 315 316 316 315 313 312 312 315 315 314 312 312 312 311 314 317 316 315 313 314 316 317 315 315 315 313 315 319 320 320 322 323 323 323 322 323 324 325 325 325 325 326 328 328 329 329 329 329 328 328 328 328 327 328 327 327 332 329 327 328 328 328 328 328 329 328 328 328 328 328 328 327 327 327 328 329 329 329 330
314 314 314 313 311 311 314 316 315 314 313 312 314 315 314 314 313 313 311 309 311 313 312 313 313 313 314 315 316 315 314 315 317 319 319 320 320 321 321 323 322 321 322 323 323 322 322 322 324 326 327 328 329 328 328 327 328 328 327 328 328 328 331 328 327 329 328 327 328 327 327 327 327 327 327 327 327 327 327 327 327 328 328 328 329
315 314 314 313 309 308 311 314 315 314 313 313 315 316 315 315 314 312 310 309 311 312 311 311 313 313 314 316 317 314 314 316 317 317 318 318 318 318 319 321 321 321 321 321 321 321 321 320 321 322 323 324 326 326 325 326 327 328 327 328 328 329 329 327 328 330 328 327 327 327 327 327 326 326 326 326 326 326 326 326 326 326 327 327 327
314 314 314 312 308 305 308 312 313 313 313 314 315 316 316 316 315 311 309 309 309 309 309 310 312 313 314 315 315 313 314 315 316 316 316 317 317 317 318 319 320 320 320 320 320 319 319 319 319 320 320 321 322 322 322 324 325 325 326 327 328 328 327 327 328 329 329 329 328 327 327 327 327 327 327 327 326 325 325 325 326 325 326 326 327
314 314 313 311 307 305 307 309 311 312 313 314 315 316 316 316 316 313 309 308 309 308 308 309 311 313 314 315 314 314 315 315 315 316 316 317 317 317 317 318 318 317 318 318 318 317 317 317 317 318 318 318 319 319 319 320 321 321 322 323 325 326 326 326 326 326 328 329 327 327 326 326 326 326 327 328 327 326 326 325 325 326 325 326 327
314 314 314 311 307 306 307 308 310 312 314 315 316 316 316 316 318 315 311 309 309 308 308 308 310 312 314 315 314 314 316 316 316 316 316 317 317 316 316 316 314 312 311 311 310 311 311 312 312 313 313 314 315 316 316 317 318 318 319 319 320 322 324 326 326 325 326 328 327 327 327 326 326 326 326 326 326 327 327 326 326 326 326 326 326
314 314 314 311 307 306 308 309 311 312 314 315 316 317 317 317 317 316 312 310 310 309 308 308 308 310 312 314 314 314 316 316 316 316 316 316 313 310 310 310 308 306 305 304 304 304 305 306 307 308 308 310 311 313 314 314 315 316 317 317 318 320 322 324 324 324 325 326 327 327 327 327 327 326 325 324 325 326 327 327 327 327 327 327 327
314 314 314 312 308 307 308 311 312 313 314 315 316 316 317 318 317 315 312 311 311 309 308 307 308 307 309 311 312 313 315 316 316 316 316 315 310 306 306 305 305 305 304 303 302 303 304 305 305 306 307 308 309 310 311 312 312 313 314 315 316 317 319 320 321 321 322 324 325 325 326 325 325 326 325 324 324 325 326 326 327 327 327 327 327
Wind_Speed
16 17 16 15 16 17 17 18 17 18 19 19 20 20 21 21 22 22 22 23 23 23 23 23 23 23 23 23 23 22 22 21 20 19 19 19 19 18 18 18 18 18 17 17 17 16 15 15 14 14 13 13 14 15 16 17 18 18 18 19 19 19 20 20 21 21 21 21 20 19 19 17 16 16 15 15 16 16 16 17 17 17 17 17 16
20 19 17 16 16 17 18 18 18 18 19 19 19 20 21 21 21 22 22 22 23 23 23 23 23 24 23 23 23 23 22 21 20 20 19 19 18 17 17 17 17 16 15 16 16 16 15 15 14 14 14 13 14 14 16 18 18 17 18 19 18 19 20 20 20 20 20 19 19 19 19 17 17 16 15 15 15 15 16 16 16 17 15 15 15
20 20 17 16 16 17 18 18 18 19 19 19 19 19 20 20 21 21 21 22 22 22 22 23 23 24 24 23 23 23 22 21 20 19 19 18 17 16 16 16 16 15 14 15 15 15 15 15 15 15 14 14 13 13 16 18 18 17 19 19 17 18 19 20 20 19 18 18 19 19 18 18 17 16 16 15 14 15 16 15 14 15 14 14 14
21 20 17 16 16 16 17 18 18 18 19 19 19 19 19 20 20 20 21 21 22 22 22 22 23 24 24 23 22 21 21 21 20 19 18 17 17 16 16 15 15 15 14 14 15 16 16 16 16 16 15 14 13 14 15 17 17 18 19 17 16 18 19 20 19 19 18 18 20 20 20 19 17 16 16 15 14 14 14 14 14 14 14 14 14
21 19 17 17 16 17 17 18 18 18 19 19 19 18 19 19 20 20 20 21 21 20 20 21 22 23 22 22 21 20 19 20 20 19 18 16 15 15 15 15 15 15 14 14 16 17 17 17 16 16 16 15 14 14 14 15 16 17 17 16 16 18 19 19 19 18 17 18 20 22 21 19 18 16 15 15 14 14 13 13 13 13 13 13 13
21 19 17 17 16 16 17 18 17 18 19 19 19 18 18 18 19 20 20 20 20 19 19 20 20 20 20 20 19 19 18 18 18 17 16 15 15 14 14 14 14 15 14 14 15 17 18 17 17 16 16 16 15 15 14 15 15 15 14 16 17 17 17 17 17 16 17 19 20 21 20 19 18 16 14 14 14 13 13 12 12 12 12 13 12
19 18 16 16 15 15 16 17 17 18 19 19 19 18 18 19 19 19 19 19 19 18 18 18 19 19 18 18 18 18 17 17 16 16 16 15 14 14 13 13 13 14 14 13 15 17 18 18 17 17 17 17 16 15 15 15 15 15 16 17 16 16 15 15 15 15 16 19 20 20 19 18 17 16 14 14 13 12 12 11 12 11 11 12 11
18 16 15 15 15 15 15 16 17 18 18 18 19 19 19 19 19 19 18 18 18 18 17 17 17 17 17 17 17 16 16 15 15 15 16 15 14 14 13 12 12 12 14 14 14 17 18 18 18 17 17 17 17 16 16 16 16 16 17 17 15 15 14 13 13 14 17 20 20 20 19 18 16 15 14 13 13 12 11 11 11 11 11 12 11
17 15 14 13 13 14 14 15 17 17 18 18 18 18 19 19 19 18 18 17 17 17 17 17 16 16 16 16 16 15 15 14 14 15 16 16 15 14 14 13 12 13 13 13 14 16 17 18 18 17 18 18 18 17 17 17 17 16 16 15 14 14 13 13 13 15 17 18 19 18 17 16 15 14 12 12 11 11 11 10 10 10 11 12 11
17 14 13 12 12 13 14 15 16 17 17 17 18 18 18 19 19 18 17 17 17 17 17 17 16 15 15 15 15 15 14 14 14 15 15 15 16 15 14 12 13 14 14 13 14 15 17 18 18 17 18 19 19 19 18 17 16 16 15 14 13 13 13 13 14 15 15 16 18 17 16 15 15 13 11 10 11 10 10 10 10 10 11 11 11
16 14 13 12 12 12 13 14 15 17 17 17 17 17 18 18 19 18 17 17 17 16 16 16 16 15 14 14 14 14 13 13 14 15 15 16 16 15 14 12 13 14 14 13 14 15 17 18 19 18 18 20 20 19 18 17 15 13 12 11 11 11 13 13 14 14 14 15 16 16 15 14 13 11 9 9 10 10 10 10 10 10 11 10 10
15 15 13 12 11 11 12 13 14 16 17 17 17 17 17 17 18 18 18 17 16 15 15 15 15 15 14 14 14 13 13 12 14 15 15 16 16 15 14 13 13 15 15 14 15 16 17 19 18 19 20 20 20 18 17 14 12 9 8 8 9 10 12 13 13 14 13 14 14 14 14 12 11 10 9 9 9 10 10 10 9 10 10 10 10
15 14 13 12 11 11 12 12 13 14 16 17 16 16 16 17 17 17 17 17 16 15 14 14 14 14 14 13 13 13 13 12 13 14 14 14 15 15 14 13 13 15 15 15 16 16 17 18 18 19 21 20 18 16 14 11 9 6 5 7 8 10 12 12 11 12 12 12 12 12 11 10 10 9 8 8 9 9 9 9 9 10 10 10 10
16 14 13 12 11 10 10 12 12 14 16 16 15 15 16 17 16 17 17 16 16 14 14 14 14 14 14 13 13 13 13 12 12 13 13 13 14 14 14 13 13 15 17 16 16 16 17 18 19 19 19 18 16 14 12 10 7 4 3 6 9 10 11 11 10 10 11 11 11 10 11 10 9 8 8 10 9 9 8 8 8 9 9 9 9
16 14 13 13 12 10 10 12 12 14 15 15 15 14 15 16 16 17 18 17 16 15 14 13 13 13 13 13 12 12 12 12 12 12 13 13 13 14 13 12 13 14 17 18 16 16 17 17 19 18 17 16 16 14 12 9 6 4 3 4 8 11 10 10 9 9 10 10 10 10 11 10 8 8 9 9 8 8 8 7 8 9 9 9 9
15 15 14 14 13 11 11 12 12 14 14 14 14 14 14 15 16 16 18 18 17 15 13 13 12 12 12 12 12 12 12 11 11 12 12 12 13 13 13 12 12 12 14 17 17 16 17 16 17 18 16 15 15 14 11 8 6 5 4 4 7 11 10 8 8 8 8 9 9 9 10 9 9 9 8 8 7 7 7 6 7 8 8 8 9
15 14 14 14 13 12 12 12 13 13 13 13 13 13 14 15 15 15 16 17 17 16 14 12 11 11 11 11 11 11 11 10 11 12 11 11 12 12 12 12 12 11 12 15 15 15 15 15 16 16 16 14 14 14 11 9 8 7 5 4 6 9 10 8 7 8 8 8 8 8 8 9 10 9 8 7 7 7 6 6 7 7 8 8 9
14 14 13 13 13 13 13 13 13 13 13 13 12 12 13 14 14 13 14 16 17 16 14 12 11 11 10 10 11 11 11 10 10 11 11 11 11 10 11 12 12 11 11 12 13 14 14 14 14 14 15 14 13 13 11 10 9 7 5 5 5 7 10 8 7 8 8 8 8 7 8 9 9 8 8 7 7 7 6 6 7 6 7 7 8
14 13 12 13 13 12 13 13 14 13 13 13 12 12 12 13 12 12 13 16 16 16 14 12 11 10 10 11 10 10 10 10 10 11 11 10 10 10 11 12 11 10 10 11 12 14 14 13 13 13 14 14 14 13 12 11 10 7 6 5 5 7 9 9 8 8 8 8 8 7 8 8 8 8 7 6 7 7 6 5 6 6 6 7 7
14 13 13 14 13 13 11 11 11 12 12 12 12 12 12 11 11 11 12 15 16 15 14 12 11 11 11 11 10 10 9 9 10 10 11 11 10 10 11 12 12 10 10 10 11 14 15 13 12 12 12 13 13 13 13 12 10 7 6 6 6 8 9 10 9 8 8 8 8 8 8 8 8 7 5 6 6 5 5 5 6 6 6 6 7
13 13 14 14 14 13 11 10 10 10 10 10 11 12 11 10 10 10 11 14 16 14 13 11 11 11 11 10 10 10 9 9 9 10 11 10 10 11 12 13 11 10 10 9 10 12 14 14 12 11 11 12 12 12 14 13 10 7 7 7 7 9 9 10 9 8 8 8 8 8 8 8 7 6 5 6 5 3 3 4 5 5 4 5 6
14 14 14 14 14 12 10 10 10 10 10 9 10 11 10 10 10 10 10 13 15 15 14 13 12 12 11 10 10 9 9 10 9 10 10 10 10 11 12 13 11 10 9 9 9 11 13 14 13 12 11 11 10 11 13 14 11 7 7 8 8 9 11 10 9 8 7 7 7 7 7 8 7 6 4 4 4 3 4 4 4 4 4 5 6
15 15 14 14 12 10 8 9 10 10 10 10 10 10 10 10 10 10 9 11 13 14 14 14 13 12 11 11 10 9 9 9 10 10 9 10 10 10 12 12 11 10 9 8 9 10 12 13 14 13 12 12 11 9 11 13 12 8 7 9 9 9 11 11 9 7 6 6 7 7 6 7 7 5 3 4 3 2 5 5 4 4 3 4 6
16 15 15 14 12 10 8 8 9 9 9 10 10 10 10 10 10 10 9 9 11 12 13 14 13 12 12 11 10 9 9 10 10 10 9 10 10 10 11 11 11 10 8 8 10 10 11 12 14 14 13 12 11 10 9 11 12 9 7 9 10 10 11 11 9 8 6 6 6 6 6 6 6 5 3 4 2 2 5 5 3 4 3 3 5
16 15 14 14 12 10 9 8 8 8 8 9 9 9 10 10 9 9 9 9 9 10 11 11 12 13 12 11 10 9 9 10 10 11 11 11 11 10 10 11 11 9 8 9 10 11 12 13 14 15 14 12 11 10 9 10 12 10 7 8 11 11 11 11 10 8 6 5 5 5 5 5 5 5 4 4 1 2 3 4 3 3 2 2 4
15 15 15 14 12 12 10 9 8 7 7 7 8 8 9 9 9 9 9 9 8 9 9 9 11 13 13 12 11 10 10 10 10 11 12 12 12 12 12 12 11 10 10 10 11 13 13 14 15 15 15 13 10 9 9 9 12 12 9 8 11 12 11 11 10 8 7 5 5 4 4 4 4 5 5 4 1 1 1 2 3 4 3 2 2
16 16 16 14 14 13 12 10 9 8 7 6 7 7 8 7 8 9 9 9 8 8 8 8 11 13 13 12 11 11 11 11 11 11 12 13 13 13 13 13 13 12 11 11 12 13 14 14 15 16 15 13 10 9 8 8 10 13 11 8 10 12 11 11 10 9 7 6 5 4 4 3 3 4 5 4 2 2 1 1 2 3 3 3 2
17 17 16 15 15 14 12 11 10 9 8 7 7 7 7 8 8 9 8 8 8 8 8 8 9 11 11 11 12 12 12 11 12 12 11 13 14 14 14 14 13 12 11 11 12 12 13 14 15 15 13 12 10 8 6 5 7 11 13 10 9 11 11 11 10 9 8 7 6 5 4 3 3 3 3 4 3 3 1 1 2 2 2 2 2
18 19 17 16 15 14 13 12 10 10 8 8 7 7 8 9 9 9 9 8 8 8 8 8 8 9 9 11 12 13 12 11 12 12 12 13 15 15 14 15 14 13 11 11 11 11 11 13 14 12 11 11 10 8 6 4 4 7 12 13 10 10 10 10 10 10 8 8 7 6 5 4 3 3 3 3 3 4 3 1 2 2 1 1 2
20 19 18 17 16 15 14 13 11 10 9 9 7 7 8 9 9 9 9 9 9 9 9 9 8 9 9 10 12 13 12 12 12 12 12 13 15 17 16 16 16 14 12 11 10 9 10 12 12 11 10 10 9 7 5 4 3 4 8 12 13 11 10 10 10 10 9 9 8 7 6 6 5 4 4 3 3 5 5 3 3 3 1 2 2
20 20 19 17 16 16 15 14 12 11 10 9 8 7 7 7 7 7 9 10 10 10 9 9 9 9 8 9 11 12 11 12 13 13 13 14 16 19 19 18 17 15 12 11 10 9 9 10 10 10 10 9 8 6 4 4 3 3 6 10 12 12 11 11 11 11 11 10 9 9 8 7 7 6 5 5 4 5 6 5 5 5 3 2 2
22 22 20 19 18 17 16 15 13 13 12 11 9 8 7 6 6 6 8 10 10 10 10 9 9 9 9 9 10 11 13 14 14 14 13 15 17 18 19 19 18 15 12 11 11 10 10 10 10 11 10 9 7 6 6 6 5 4 6 9 12 13 13 13 12 12 13 12 11 10 10 9 9 8 7 6 5 6 6 7 7 6 4 3 3
23 22 21 20 19 18 17 16 15 14 13 12 10 9 7 6 5 5 7 8 9 10 10 10 10 10 11 11 12 13 14 15 15 14 15 16 16 16 16 18 17 14 11 11 11 12 12 12 13 12 12 11 10 9 8 8 7 6 6 8 11 13 14 13 13 13 13 13 12 11 11 11 11 10 10 8 7 7 7 7 7 7 6 4 3
25 24 23 22 20 19 18 17 17 16 14 13 12 11 9 7 6 5 5 6 7 8 9 9 11 13 14 14 14 14 15 16 15 15 15 15 15 15 15 15 14 13 12 13 13 13 14 14 14 14 13 13 12 11 10 9 8 8 7 8 12 14 15 15 14 13 13 13 12 12 12 13 13 12 11 10 9 9 8 7 7 8 7 6 5
28 26 24 22 20 18 17 17 17 17 15 14 13 11 9 8 6 6 6 4 5 6 7 7 8 10 13 14 12 13 14 14 15 14 13 14 13 13 12 12 13 14 15 16 16 15 15 15 15 14 14 12 12 11 11 11 11 11 10 10 13 16 17 17 16 15 14 14 14 13 13 14 14 14 13 12 11 10 10 9 8 9 9 8 7
29 27 24 22 20 18 17 17 18 18 17 15 13 11 9 8 7 6 6 5 3 4 6 6 4 3 5 7 7 10 11 9 10 9 10 11 7 6 8 11 13 16 17 17 17 16 15 15 15 14 14 12 11 11 11 11 12 12 12 13 14 16 19 19 19 17 16 15 15 15 15 15 15 15 15 14 13 12 11 11 10 10 11 10 9
29 27 25 22 20 19 18 17 18 18 17 15 13 10 9 7 7 7 6 5 4 4 4 5 3 1 2 2 3 6 6 5 5 5 7 5 1 3 7 9 10 13 16 17 17 17 17 16 16 15 14 13 13 13 12 10 9 9 10 13 15 17 19 21 21 20 18 17 17 17 16 16 16 16 16 15 14 13 12 12 12 12 12 12 11
29 27 25 22 21 21 20 18 19 18 16 15 13 10 9 7 6 7 6 5 4 5 5 4 3 2 2 1 1 3 4 3 4 4 5 6 4 2 5 4 6 8 12 15 15 16 17 17 16 15 14 14 13 11 9 8 9 7 8 11 12 16 19 21 22 21 20 19 18 18 18 17 17 16 16 16 15 15 14 14 14 14 14 14 13
28 26 23 22 21 21 21 20 20 19 18 16 14 12 10 8 7 7 7 5 4 6 5 4 3 2 1 1 1 2 3 4 4 5 6 8 6 3 4 2 5 4 7 11 11 10 12 14 14 14 15 12 8 6 6 8 10 10 9 12 11 13 18 21 23 23 23 22 21 20 19 19 19 18 17 16 16 16 16 16 16 15 15 15 14
27 26 24 23 22 22 22 22 21 20 19 17 16 15 13 11 10 8 7 6 6 6 5 3 2 1 0 1 2 3 3 4 4 5 6 6 6 5 5 1 3 3 3 5 7 5 3 9 12 12 11 7 3 3 5 7 9 10 11 12 9 11 16 20 23 25 25 24 23 22 22 21 21 20 19 17 17 17 17 17 17 17 16 16 16
26 26 25 25 24 23 23 23 23 21 20 19 18 16 14 13 12 10 8 7 7 7 6 4 3 1 1 1 1 2 3 3 4 4 4 5 5 5 4 2 1 2 1 2 3 4 2 4 7 5 6 5 2 3 4 5 4 7 11 12 10 9 13 17 20 23 25 25 24 24 23 23 23 21 20 19 18 17 17 17 18 18 18 17 17
27 27 27 26 25 24 24 24 24 22 20 19 18 17 15 14 13 11 10 9 9 8 7 5 3 2 1 1 1 2 2 2 3 3 3 4 6 7 6 4 4 3 3 6 4 3 4 4 4 3 4 4 3 4 7 5 2 1 4 7 11 10 9 12 16 20 23 24 24 24 24 24 24 23 21 21 20 19 18 17 18 18 19 19 18
27 28 27 27 26 26 26 25 25 23 20 19 18 17 16 14 12 11 10 10 10 9 7 6 4 3 2 1 1 3 3 3 3 2 2 3 5 8 10 9 9 8 6 8 8 4 2 3 3 3 3 3 2 2 5 4 1 2 2 1 4 5 5 5 8 14 18 22 24 23 24 24 24 24 23 23 22 20 19 18 18 18 18 19 19
26 28 28 28 28 28 27 26 25 23 21 20 19 19 17 15 12 11 11 10 10 9 7 5 3 3 2 1 1 2 4 4 3 3 4 4 6 8 9 9 11 11 9 8 9 10 10 8 6 6 8 8 6 6 6 3 1 2 1 1 1 2 2 3 7 9 11 15 20 22 24 24 24 23 23 23 23 22 21 20 20 19 19 19 20
28 31 31 30 29 28 28 27 26 24 23 22 22 21 19 16 14 13 12 10 11 10 8 7 5 4 3 2 1 2 3 3 3 4 4 4 5 6 6 7 9 11 10 10 10 12 14 13 11 9 9 8 7 8 9 8 5 3 3 3 1 0 2 2 7 6 6 8 11 15 18 20 21 22 22 23 23 23 23 22 22 21 21 20 20
30 32 32 30 29 28 28 28 27 26 25 24 24 22 20 18 17 16 14 13 13 12 9 8 7 5 4 3 2 1 2 3 4 3 3 3 3 4 5 5 5 7 9 9 10 10 11 13 12 11 11 9 8 9 9 9 9 7 4 2 1 2 2 3 3 2 6 9 6 5 8 11 13 15 18 20 21 22 22 23 24 23 23 22 22
31 31 30 30 30 29 29 30 29 28 27 26 25 23 21 19 19 19 17 15 15 12 9 8 7 6 5 5 3 2 3 3 3 3 2 3 3 4 5 5 5 6 7 7 8 9 10 11 10 10 11 10 8 9 10 8 8 8 7 4 1 1 2 3 1 1 5 6 7 10 11 10 9 10 12 15 17 19 20 21 23 23 23 24 23
29 30 31 32 32 31 31 31 30 30 29 28 26 24 22 21 21 21 19 16 14 11 10 9 8 7 6 6 5 4 4 4 4 3 3 3 3 4 4 5 6 7 7 7 8 8 8 9 9 9 9 9 10 10 10 9 7 7 7 6 4 2 2 2 2 2 2 3 8 12 13 13 12 12 11 11 12 14 15 16 18 20 21 23 24
28 31 33 33 33 32 32 32 31 31 31 30 28 26 24 22 22 23 22 17 13 11 11 10 9 8 7 6 6 5 5 5 5 4 4 3 3 3 4 5 7 9 9 9 9 8 8 8 9 9 9 10 10 9 9 10 8 7 6 6 5 3 2 1 1 2 3 4 4 4 9 14 14 14 13 12 13 13 14 15 13 14 15 18 20
27 30 32 33 33 32 32 33 33 33 33 32 29 27 26 24 23 24 24 20 15 14 12 11 10 9 8 7 7 7 6 6 6 4 4 3 4 5 6 8 9 10 11 10 10 10 10 10 10 10 10 10 10 9 9 10 9 8 7 7 7 6 4 3 4 5 4 5 5 3 7 10 10 14 18 17 17 16 16 16 15 14 13 14 16
24 27 30 32 33 34 34 35 35 34 34 33 31 29 28 26 25 26 26 22 18 17 15 14 12 11 10 9 9 8 7 7 6 5 4 4 5 7 8 9 9 10 11 12 12 12 12 12 12 12 11 11 10 9 8 8 8 8 8 9 9 8 5 4 5 7 5 4 5 5 6 9 10 14 17 17 17 17 16 16 16 16 16 15 15
Wind_Direction
175 170 165 163 162 157 151 145 145 145 144 143 138 135 132 130 129 127 126 124 123 122 123 125 127 129 130 131 132 131 130 125 122 121 120 120 122 122 122 122 122 124 127 128 127 127 127 126 124 124 123 122 122 126 125 123 122 118 117 119 119 117 117 116 115 114 111 111 112 110 106 107 105 103 101 100 99 98 99 98 96 93 88 85 83
169 167 165 165 164 158 152 148 147 147 145 145 140 137 134 132 130 129 129 125 124 123 123 125 128 130 131 132 131 130 127 123 121 121 121 122 122 121 120 119 120 120 124 128 130 130 129 127 125 124 123 123 124 126 126 127 125 121 125 126 125 124 122 119 116 115 116 117 114 108 106 106 103 100 99 99 96 95 97 94 93 93 89 87 86
161 164 164 164 166 158 154 151 150 148 147 147 142 139 136 134 132 132 131 127 125 124 124 127 129 130 130 130 129 128 126 125 124 123 124 124 122 120 119 119 120 120 123 128 131 130 127 126 124 124 125 125 126 126 127 130 127 124 130 131 128 129 126 122 120 119 121 119 113 110 109 106 103 101 99 98 95 91 90 89 90 90 89 88 86
159 160 158 162 165 160 157 155 153 150 149 148 145 142 139 136 134 134 134 130 127 125 127 129 130 130 129 129 129 127 126 126 126 125 125 123 121 119 119 120 121 120 123 127 129 128 126 126 125 125 127 126 127 127 128 130 129 127 131 131 129 131 131 128 127 124 123 122 120 115 111 108 105 103 100 99 96 92 92 92 90 89 88 86 84
158 156 155 161 163 163 162 159 157 152 150 150 148 145 143 140 137 137 137 133 128 126 129 131 132 132 131 131 129 128 126 127 127 127 125 123 120 119 119 120 123 121 120 125 127 128 127 125 126 127 127 127 126 127 129 130 131 131 130 132 133 133 134 134 133 129 125 123 120 116 115 112 108 104 103 101 98 95 93 92 92 92 91 87 85
157 156 156 159 162 165 165 163 161 154 152 152 151 149 146 144 140 138 140 136 129 127 130 132 132 133 133 132 130 129 128 129 130 130 129 126 123 121 120 122 126 123 120 124 126 128 127 126 127 127 127 127 128 128 129 131 132 128 126 133 135 134 135 137 136 131 125 120 118 118 117 114 110 109 106 102 100 98 95 92 91 92 91 89 86
156 154 154 157 161 166 166 165 164 158 154 154 154 152 149 147 145 141 142 139 134 131 131 134 134 134 133 132 131 131 132 133 133 134 131 129 127 125 122 124 126 124 122 123 126 128 127 127 128 127 127 128 129 129 130 130 128 126 129 135 138 137 138 140 139 134 125 120 117 115 111 108 108 109 106 103 102 100 97 95 92 89 89 87 85
154 153 154 158 160 164 165 166 167 163 157 157 157 155 152 151 149 144 143 142 138 135 134 136 137 136 135 134 134 135 136 137 139 138 135 132 129 127 123 122 122 123 123 123 127 129 129 129 129 129 131 131 131 130 131 129 126 130 136 138 140 140 140 140 138 134 128 121 116 114 112 111 112 111 109 109 107 102 101 100 97 94 91 87 85
152 153 155 158 158 159 163 167 169 167 161 159 160 158 156 155 153 148 146 145 143 140 137 139 139 138 136 137 137 138 139 141 143 143 142 137 134 130 128 126 121 125 126 124 128 130 132 131 129 130 132 133 134 133 129 128 128 130 132 133 137 139 140 140 137 134 129 122 118 118 117 116 114 112 112 113 109 105 107 106 99 96 89 86 84
150 152 153 155 155 156 160 168 171 170 166 162 162 162 161 159 157 154 149 148 146 144 141 140 140 140 138 138 140 140 143 145 146 148 148 143 142 137 133 130 120 128 133 127 130 132 133 133 132 131 134 136 138 136 131 129 128 125 124 124 128 136 140 140 138 132 128 124 123 120 119 120 118 116 118 114 109 106 106 101 95 94 88 85 84
147 149 149 151 155 157 160 168 171 172 172 167 164 164 165 163 161 159 154 152 149 146 143 142 142 142 142 140 141 143 145 149 151 152 153 148 145 140 135 132 122 130 140 134 133 135 137 137 138 139 140 141 140 137 132 129 125 121 122 124 122 129 139 139 136 130 127 127 127 125 127 130 125 120 117 112 109 107 103 98 94 94 92 88 86
144 146 145 152 154 156 162 169 171 172 175 171 166 164 165 166 165 164 159 156 152 149 146 145 144 144 145 144 144 146 147 152 156 155 156 151 144 141 137 135 128 132 143 142 137 138 144 146 145 146 144 142 141 139 135 133 129 127 136 140 131 128 138 139 134 132 130 131 131 132 136 132 121 116 114 113 109 105 102 99 94 93 91 88 88
139 140 143 149 146 152 163 169 170 170 175 173 168 164 164 167 168 167 164 161 156 153 151 149 147 146 147 147 147 149 153 156 159 159 158 152 145 145 141 140 133 132 144 148 144 144 148 151 149 147 145 144 146 146 145 144 140 141 153 156 148 138 139 139 134 134 134 134 135 135 135 126 118 123 123 116 109 107 104 100 97 94 91 89 89
141 137 139 140 135 147 164 168 168 165 171 174 170 165 166 167 169 171 169 167 162 159 157 155 152 150 150 148 149 152 158 160 162 161 158 154 150 148 145 144 139 136 146 150 149 149 150 151 151 150 148 149 152 155 155 153 149 146 149 152 159 153 140 137 132 131 133 133 135 131 126 124 123 121 118 113 111 110 103 97 98 95 93 90 91
145 137 133 135 133 144 160 165 166 162 167 173 171 169 169 169 171 174 173 173 168 165 163 161 157 153 153 150 150 153 160 162 163 164 158 155 153 152 150 149 145 143 149 154 153 154 157 156 156 157 157 156 156 159 161 158 154 143 135 141 161 161 143 133 129 129 132 133 136 132 127 128 123 115 114 116 119 117 105 101 99 94 94 92 92
147 138 133 137 141 146 152 158 161 160 163 170 173 172 172 171 174 176 176 178 175 171 168 166 162 157 157 152 152 155 160 163 164 165 160 160 159 154 154 153 152 147 149 156 157 159 164 165 163 162 165 166 161 163 168 167 158 147 140 139 164 170 155 134 126 127 129 131 133 136 138 131 121 121 121 122 125 120 108 105 101 96 96 93 92
146 142 142 143 148 150 149 151 155 157 161 166 171 174 176 175 176 179 179 181 180 177 172 169 167 162 159 155 155 157 162 165 164 166 164 166 164 157 157 157 155 150 148 155 161 165 168 168 166 165 169 174 173 173 175 172 162 153 150 149 168 178 173 153 129 125 127 128 129 135 139 134 131 130 127 126 119 111 105 99 97 97 98 97 96
143 146 149 149 150 149 147 146 150 153 157 161 166 172 178 177 177 180 181 184 184 181 176 172 172 167 163 159 159 160 162 164 165 169 170 170 167 163 163 162 160 157 154 154 161 170 173 171 169 167 171 175 179 181 179 173 165 158 158 164 171 182 186 176 149 134 128 125 127 132 137 141 144 143 144 140 121 113 113 105 101 101 101 99 97
143 150 151 151 149 146 144 144 149 151 154 157 159 165 174 177 176 181 184 185 187 182 177 175 175 171 167 163 161 163 163 165 168 172 174 174 175 174 172 169 166 164 163 160 160 169 175 177 174 170 169 172 175 181 183 175 168 163 163 168 176 186 191 188 173 149 136 125 123 128 136 145 148 153 162 153 132 130 134 122 110 103 99 99 99
145 154 152 151 147 142 141 140 147 151 155 155 155 160 166 173 174 181 185 185 188 182 175 177 177 174 170 166 163 163 164 169 173 175 176 177 180 182 180 176 172 169 168 168 166 170 176 180 180 175 171 170 169 178 187 180 170 169 165 164 181 190 189 190 185 163 145 128 122 124 131 142 146 153 158 151 151 149 147 138 122 115 108 108 106
151 157 152 151 148 144 141 141 147 152 155 153 155 156 160 169 170 177 184 185 185 181 176 178 182 179 171 166 167 167 168 176 178 180 180 178 182 185 186 183 176 173 170 173 175 174 177 182 183 180 179 174 167 173 184 183 176 174 166 162 182 190 182 183 184 172 154 135 124 122 126 133 137 143 146 154 170 162 142 143 135 135 130 116 109
158 160 154 152 150 147 144 146 149 152 157 157 158 157 161 170 169 174 186 186 182 182 181 182 185 180 172 169 173 175 177 183 184 185 184 182 184 188 193 187 181 179 174 181 185 180 179 183 185 184 186 183 176 176 179 182 183 179 171 165 178 187 179 175 177 173 160 140 128 121 122 125 131 140 142 153 175 163 144 146 144 147 145 128 117
163 163 158 156 156 153 147 151 152 154 159 162 165 164 166 172 170 174 189 189 185 188 187 185 185 180 174 174 180 182 186 192 190 190 190 186 186 191 197 192 188 186 178 188 192 187 183 183 187 188 189 187 183 183 178 180 185 185 174 167 174 182 177 173 173 173 162 142 129 120 118 123 135 148 143 145 157 150 151 156 150 149 152 142 131
169 166 163 163 164 160 150 153 157 158 161 165 171 171 172 175 173 174 186 191 191 194 192 188 184 181 180 181 188 189 193 200 196 196 196 191 188 191 199 196 193 190 184 193 196 193 190 186 189 189 192 190 183 186 181 177 182 186 181 168 172 176 174 176 176 172 164 146 130 119 118 123 138 152 149 149 135 103 150 167 161 152 160 150 140
172 167 166 166 165 161 155 156 158 162 168 171 171 173 177 180 179 178 183 188 193 198 197 194 186 184 186 188 195 198 201 205 201 200 201 198 194 192 197 199 195 192 194 202 201 198 196 192 191 191 193 193 184 184 183 176 176 181 186 173 172 174 173 177 182 180 170 152 134 123 122 125 138 155 157 157 140 63 146 185 194 183 194 172 151
172 167 167 164 162 160 157 156 156 163 172 172 174 181 181 182 186 186 190 190 194 196 197 201 193 189 192 194 200 205 207 207 205 206 205 202 199 194 196 199 197 199 205 206 205 204 201 196 195 194 195 197 192 188 188 180 176 178 185 180 174 176 176 178 183 184 179 163 147 134 126 126 134 152 163 169 171 64 138 213 223 232 248 215 175
168 166 167 164 164 161 158 156 154 161 168 171 183 191 187 189 193 194 199 197 197 197 197 201 197 194 197 201 206 212 212 207 206 209 210 205 201 200 199 200 200 204 210 206 207 210 205 200 199 198 198 201 200 197 193 184 179 180 185 188 179 178 181 181 183 185 185 178 167 155 143 134 136 152 167 180 180 178 255 332 218 236 266 228 209
167 168 170 168 167 164 162 160 158 163 167 175 189 196 195 197 198 202 206 202 200 198 197 198 194 195 203 209 211 213 210 207 208 209 212 210 206 203 202 202 202 206 210 206 209 211 207 203 202 202 202 203 199 193 192 183 181 183 187 193 188 182 184 186 187 188 191 192 188 177 166 154 147 156 165 182 185 189 226 319 202 237 304 244 226
170 170 173 172 171 171 171 170 170 172 175 182 191 199 200 202 205 208 210 209 208 206 204 201 192 192 199 204 208 209 206 208 215 217 216 217 211 205 205 204 204 207 206 204 207 208 205 202 205 206 201 196 188 185 187 182 183 188 192 197 197 188 189 196 197 196 197 198 200 196 190 184 173 170 166 177 191 196 206 219 205 210 334 326 274
175 174 176 176 176 178 179 180 180 182 186 188 192 200 202 205 212 216 217 216 214 215 212 205 200 199 198 197 203 209 211 215 221 225 225 225 216 207 207 206 205 205 202 202 200 199 199 200 206 206 197 189 183 184 190 192 200 203 201 203 204 202 201 207 211 209 207 203 205 208 205 203 199 198 194 192 199 195 195 203 206 200 235 329 314
178 177 178 179 180 182 184 187 188 189 192 191 193 197 196 202 212 219 224 224 220 219 217 213 211 209 209 207 210 215 219 225 230 234 233 231 223 212 205 205 206 203 199 199 196 193 194 198 202 203 200 194 191 199 218 236 244 236 221 214 214 218 218 218 222 223 218 212 210 214 217 216 213 214 214 215 215 203 197 199 204 207 223 258 260
180 181 180 181 182 185 187 190 193 192 191 191 190 186 187 198 208 208 214 225 227 222 218 219 221 218 218 219 222 224 224 230 235 237 236 234 230 219 207 206 208 203 198 198 196 194 194 197 201 204 210 213 219 230 248 262 265 260 239 228 226 229 231 228 230 232 226 220 217 219 224 225 223 222 224 226 226 218 209 204 207 215 221 233 251
179 180 180 182 184 186 186 188 191 190 187 184 181 178 181 189 200 202 202 216 228 230 221 216 223 222 220 224 226 228 229 233 235 233 236 238 234 224 213 213 212 207 205 205 204 201 198 201 205 212 221 230 241 249 262 270 272 275 256 242 235 231 233 234 237 240 233 228 225 226 229 233 232 228 228 231 233 231 224 217 215 219 223 230 248
173 174 177 179 180 182 182 183 183 183 179 176 173 170 171 170 173 181 187 205 222 234 229 214 218 219 217 218 220 227 230 232 233 229 233 242 241 231 217 213 213 207 209 213 214 213 208 207 210 219 229 237 248 255 263 270 279 285 270 256 244 233 232 233 237 243 240 235 232 234 233 236 239 237 235 233 235 237 233 230 225 225 231 231 232
170 171 175 176 177 180 181 179 176 174 171 168 168 166 166 164 162 162 159 176 201 217 222 217 227 227 220 217 218 231 236 235 236 231 234 243 247 246 229 218 217 210 211 212 210 216 218 217 218 222 230 238 248 254 261 272 283 286 276 268 255 243 238 235 236 240 243 242 241 242 240 239 243 244 243 239 238 239 238 238 234 232 236 237 235
173 173 175 176 178 181 181 176 169 168 166 164 166 166 165 163 167 164 150 140 144 176 198 205 230 243 224 227 227 240 249 250 251 245 244 243 243 272 250 230 225 218 218 217 212 216 221 222 225 227 230 237 249 255 264 278 285 285 282 275 264 252 244 239 236 236 239 242 246 249 247 245 247 248 248 246 244 244 243 242 239 237 239 246 249
177 176 176 178 180 179 179 175 168 166 165 165 166 165 163 163 171 172 158 141 125 125 153 174 184 153 189 235 242 251 263 276 288 285 277 272 266 282 259 242 235 227 226 227 222 220 222 224 227 231 233 238 250 258 266 278 279 289 297 282 267 256 246 240 237 238 240 242 246 251 252 251 251 251 251 251 250 248 248 246 243 239 239 249 254
178 179 179 181 182 178 178 175 169 167 165 165 165 165 164 163 170 175 167 152 145 142 137 141 140 129 142 152 245 271 292 314 333 334 344 12 34 284 278 255 234 230 229 229 227 227 230 231 232 236 241 245 250 257 272 277 263 272 310 302 273 252 245 243 241 241 243 243 246 251 254 256 255 255 255 255 254 251 250 249 246 243 240 245 251
179 178 179 181 180 177 175 173 170 168 166 165 164 161 157 157 164 171 171 164 162 158 147 144 137 119 106 54 358 330 334 342 3 20 28 38 45 19 351 287 214 216 232 229 224 228 235 236 236 241 246 251 255 263 292 295 265 257 296 315 294 259 249 246 246 247 247 247 249 252 255 257 257 257 257 257 258 256 254 252 249 247 245 246 249
179 178 180 180 179 176 173 171 170 168 166 165 162 157 154 156 162 169 174 166 162 162 161 170 173 155 153 8 346 337 344 352 9 27 33 38 41 42 35 12 210 201 220 225 221 217 228 234 233 237 241 247 274 288 309 311 283 265 284 308 305 271 257 252 251 251 250 250 251 253 255 257 257 257 257 258 259 259 259 258 254 252 250 249 250
178 181 181 180 180 178 175 170 169 170 170 168 165 163 163 163 166 175 177 162 159 168 176 188 194 165 115 46 0 336 340 358 14 25 30 33 38 52 62 67 141 171 132 23 274 226 166 196 211 220 236 246 287 320 311 319 320 281 280 299 308 289 266 257 256 255 254 253 252 254 255 256 257 257 257 257 258 259 260 260 259 256 254 252 251
181 183 184 183 181 180 179 173 170 172 174 174 172 171 174 174 174 177 172 163 163 172 182 190 199 187 143 97 64 27 5 15 26 28 27 37 51 62 69 75 80 93 91 53 31 233 200 176 178 193 231 251 287 310 289 287 41 211 262 300 311 306 280 259 257 257 256 254 253 254 255 256 257 257 257 256 256 257 259 260 260 259 257 255 254
185 186 186 185 183 182 182 178 173 174 176 178 176 174 176 178 178 173 166 164 167 174 183 189 199 206 184 141 41 22 12 12 29 56 67 75 74 74 76 75 78 84 94 85 77 87 116 131 140 133 113 91 76 0 307 278 188 136 112 12 311 318 301 276 272 263 257 256 255 256 257 258 259 259 258 257 256 256 257 259 260 260 260 259 257
189 188 188 188 186 184 184 181 177 176 177 177 175 175 177 179 176 168 165 164 165 169 170 167 163 159 156 139 61 25 6 5 32 77 94 102 90 80 78 73 73 78 86 93 88 78 76 85 91 88 85 85 92 79 59 58 164 164 123 141 100 10 288 330 332 294 271 262 258 260 262 261 260 260 258 258 260 259 259 259 259 260 261 262 262
194 191 190 190 187 185 186 185 180 177 178 176 175 177 177 177 175 168 166 162 160 166 167 163 155 145 143 140 110 36 27 54 84 88 88 94 81 69 69 69 68 69 74 81 82 75 72 73 74 77 81 88 102 91 71 66 78 110 151 167 128 204 226 0 347 310 300 297 277 270 269 265 264 263 262 263 264 264 263 262 262 262 262 263 264
200 195 192 191 188 187 187 187 183 179 180 179 179 182 181 180 178 174 174 170 169 175 178 173 166 159 156 158 164 60 74 106 103 88 73 61 52 51 57 66 67 63 67 71 71 69 66 66 66 67 71 79 98 91 73 75 82 77 81 123 195 245 252 332 343 302 313 316 304 304 305 296 286 276 272 272 271 269 268 267 267 266 265 265 264
202 196 193 191 189 189 188 188 187 182 183 183 184 188 189 190 191 186 184 183 183 183 178 169 163 164 163 163 158 112 113 137 117 90 74 52 45 53 59 67 72 68 66 64 61 58 57 58 56 56 61 64 75 78 73 79 87 75 72 88 80 4 321 302 265 273 313 306 297 309 320 327 324 311 301 294 286 279 275 272 272 271 270 269 266
200 196 193 191 191 190 188 189 188 184 186 187 189 193 195 198 202 199 195 195 194 184 171 167 167 169 167 166 160 127 116 128 125 105 85 70 55 54 54 62 69 68 66 64 61 57 52 52 49 48 51 52 56 67 70 69 70 66 70 84 81 59 2 314 268 254 268 288 300 304 311 321 322 316 316 314 306 297 291 286 280 277 275 274 272
198 196 193 191 192 191 189 190 188 186 188 191 193 197 199 205 209 207 203 203 201 187 174 173 175 177 177 176 172 153 133 128 129 118 96 82 59 52 62 73 75 70 65 62 57 50 44 41 41 40 40 46 49 51 57 59 60 58 53 61 65 58 40 4 307 291 270 276 286 291 311 321 319 312 311 311 312 311 308 304 297 288 284 281 278
198 196 193 192 193 192 191 191 189 188 190 194 197 200 203 210 215 212 209 207 204 193 183 183 185 187 190 188 181 169 155 147 142 132 117 95 78 80 86 86 78 66 57 48 42 40 39 38 37 37 37 42 44 43 47 51 55 53 46 45 45 39 39 36 7 353 321 281 276 284 309 317 314 306 307 308 310 310 306 304 299 290 287 289 290
194 194 194 194 194 195 194 193 192 191 193 196 200 203 206 211 217 215 212 211 207 198 192 190 191 193 197 196 188 178 168 161 156 148 138 113 101 100 94 85 71 57 45 38 37 40 43 44 43 43 43 44 44 40 41 41 42 44 42 42 44 44 43 32 5 351 341 311 303 309 313 315 308 298 304 311 310 305 304 305 301 292 286 287 291